RH
25 29 30 31 38 46 53 61 66 71 80 89 93 96 97 96 96 92 80 68 55 41 35 32 29 26 22 19 17 14 12 13 14 15 19 25 32 38 40 41 44 46
30 35 39 42 51 63 68 69 69 70 74 78 80 85 94 100 103 98 88 78 67 54 48 46 42 37 33 29 25 20 16 15 15 16 17 21 28 34 39 40 42 45
34 35 43 50 59 66 68 67 65 65 66 66 69 76 86 94 98 96 89 80 72 66 60 56 51 47 45 42 35 29 25 20 17 18 18 19 23 29 35 38 40 43
54 42 40 48 59 65 63 59 58 58 58 61 71 81 84 88 92 94 93 87 79 73 69 63 58 56 54 52 49 43 38 32 25 22 19 19 20 23 28 34 37 41
74 63 51 45 47 54 57 55 52 53 55 61 72 83 86 89 95 99 102 102 92 80 74 69 64 61 61 61 59 56 53 50 45 36 27 21 20 20 21 26 31 36
73 72 68 60 48 43 46 50 51 50 53 62 72 81 87 89 94 100 103 105 101 89 80 75 70 68 69 70 67 64 64 65 65 60 47 35 28 23 20 21 23 28
64 65 68 68 63 53 45 43 47 48 49 57 69 79 85 88 94 98 95 94 98 97 89 82 78 76 77 79 77 74 73 73 75 74 67 56 43 32 25 21 20 21
63 63 63 66 69 68 61 50 44 45 47 51 63 76 86 95 101 97 90 89 93 96 91 83 80 80 82 83 83 84 82 80 79 76 73 68 59 46 35 27 21 19
71 69 66 68 71 71 72 68 55 45 46 49 59 74 88 99 102 96 94 99 98 93 89 86 83 82 84 86 86 87 86 83 79 77 75 73 66 58 50 40 30 23
77 76 72 74 77 72 71 78 70 51 44 49 57 72 87 94 97 98 102 104 101 97 98 100 94 87 86 89 90 92 94 89 83 80 81 77 67 60 58 51 42 35
75 77 76 77 81 76 70 76 78 61 47 49 57 70 82 89 95 104 105 102 101 100 102 103 97 89 86 89 92 97 101 99 95 92 92 85 71 61 59 57 51 47
73 71 74 79 81 78 71 72 77 69 53 50 57 66 76 87 98 105 103 101 102 101 99 100 96 88 83 86 92 98 100 103 104 101 98 91 76 65 62 61 57 54
75 71 72 80 85 82 75 70 75 74 60 51 57 64 72 83 93 97 97 100 104 103 100 102 101 93 84 82 88 93 97 103 106 103 96 88 79 73 71 70 65 59
85 81 78 85 89 87 78 70 75 79 64 53 57 63 68 74 80 87 94 101 105 104 102 101 102 101 94 84 81 84 90 95 100 101 95 87 82 79 80 81 78 72
100 97 94 95 95 93 84 74 80 84 68 56 58 61 63 66 71 81 92 98 100 102 104 102 100 103 102 94 82 78 82 86 91 94 94 90 87 83 83 87 88 86
102 104 105 104 102 99 89 82 87 86 70 58 58 59 62 64 67 77 88 93 93 94 100 103 103 102 102 97 87 79 77 79 81 85 87 88 87 84 85 89 93 95
99 102 102 104 106 102 93 90 92 83 67 60 61 62 65 65 68 78 88 92 91 88 91 99 104 104 99 94 88 80 75 74 76 80 82 85 88 88 90 92 95 98
100 101 99 102 106 104 98 96 91 77 65 63 65 66 67 68 73 82 88 91 92 87 86 91 99 103 100 97 94 88 80 74 74 76 78 81 86 91 96 98 98 98
100 101 100 101 104 105 104 101 93 80 72 71 72 73 73 75 80 84 88 92 95 90 85 86 92 98 99 97 95 92 86 79 76 76 75 76 81 89 97 101 101 102
100 101 100 100 102 104 106 104 100 94 88 85 85 84 84 86 88 90 91 94 95 92 88 86 88 92 95 94 91 88 85 80 78 79 78 79 84 90 96 100 103 105
100 100 100 100 101 102 102 102 102 102 100 100 99 98 98 98 96 96 99 102 102 99 96 93 91 91 91 91 90 89 88 84 82 82 83 85 89 92 96 102 104 105
101 101 100 99 100 101 102 102 102 102 102 102 101 101 101 101 102 102 103 103 102 99 97 97 97 97 96 95 94 92 89 87 87 88 91 94 97 100 102 105 104 103
100 101 101 100 101 101 102 103 104 104 104 103 102 103 103 102 104 104 102 100 98 97 98 99 99 99 100 100 101 98 93 91 93 97 101 103 104 105 104 102 101 100
102 102 101 99 98 96 94 93 92 91 89 88 86 85 85 83 83 83 83 83 83 84 88 93 96 100 101 101 102 100 96 95 97 100 102 102 102 103 101 99 99 99
83 82 80 78 75 73 71 69 67 65 63 62 60 59 58 56 56 56 56 55 55 55 59 63 68 76 85 92 98 102 103 103 102 101 100 101 101 100 99 99 99 98
67 71 74 75 75 73 70 66 62 59 56 54 52 52 54 54 53 55 55 54 53 52 52 50 49 50 54 60 68 77 86 91 94 96 97 98 99 100 100 101 101 101
Wind_Speed
38 35 33 30 28 27 27 28 29 29 30 32 33 35 35 36 37 39 42 43 45 45 44 45 47 50 55 60 67 74 81 87 93 98 102 105 106 107 110 110 109 108
36 34 32 30 29 29 29 30 31 31 32 34 35 35 35 36 37 39 40 41 42 42 41 41 42 44 47 51 56 63 69 76 82 88 94 99 101 103 106 108 108 107
35 34 32 31 31 31 32 33 33 33 34 35 34 34 35 36 37 38 39 39 40 40 40 40 40 41 42 45 49 52 57 64 71 78 85 91 96 99 101 103 106 107
34 34 34 33 33 34 35 34 34 34 35 34 33 34 35 35 36 36 37 38 38 38 39 39 39 40 40 41 43 44 47 52 58 66 74 81 88 93 96 99 102 105
35 35 34 35 36 36 37 36 34 34 34 33 32 33 34 34 33 32 33 35 36 36 37 38 37 37 38 38 38 39 40 43 47 54 61 69 76 83 89 94 97 101
36 36 35 35 36 37 38 36 35 33 32 32 32 32 32 31 29 29 30 33 34 35 35 36 36 35 35 36 35 34 35 37 40 45 50 56 63 71 79 86 92 96
38 39 38 36 35 36 37 37 35 33 32 31 32 31 30 29 27 28 30 31 32 33 34 35 35 35 34 34 33 32 32 34 37 40 43 47 53 60 68 76 83 89
41 41 41 40 37 35 35 36 36 34 32 31 31 30 29 28 28 29 29 29 30 32 33 33 34 34 34 34 32 31 31 32 34 37 39 43 46 51 57 64 71 79
43 42 41 40 40 38 34 34 35 35 32 30 29 28 28 28 28 27 26 26 28 30 30 31 32 33 33 33 31 30 29 30 32 35 38 40 42 44 48 53 58 65
42 42 40 38 38 38 35 32 33 34 32 29 28 28 28 28 26 24 23 24 27 28 29 31 32 32 33 32 31 29 29 30 31 34 37 39 40 41 43 45 48 52
38 37 37 35 34 36 35 32 31 32 31 29 28 27 26 25 23 21 22 24 25 26 28 31 31 31 31 31 31 30 30 30 31 33 35 37 38 39 40 41 43 44
35 34 33 31 30 32 33 31 28 29 30 29 27 26 25 23 22 23 24 24 24 25 27 29 30 30 30 30 30 30 30 29 30 32 35 37 38 37 36 37 39 41
32 31 30 29 27 28 29 28 26 26 28 28 27 25 24 24 24 24 23 21 22 24 26 27 29 30 29 30 30 30 29 28 29 31 34 36 37 36 34 33 34 37
27 25 25 25 24 24 25 25 23 23 25 26 26 25 24 24 23 21 20 20 22 24 24 26 27 29 29 30 30 29 27 27 28 29 31 33 34 34 33 31 30 31
21 19 19 20 20 19 20 20 20 20 22 25 25 24 22 22 21 20 20 21 22 23 23 24 26 27 29 30 30 29 28 27 27 28 29 30 31 32 32 31 30 29
16 14 13 14 13 13 14 16 16 17 20 23 23 22 21 21 21 20 20 20 21 23 23 24 25 26 28 30 30 30 29 28 27 27 27 28 29 29 30 30 30 30
13 10 7 6 5 7 10 12 14 15 18 20 20 19 19 19 20 20 19 20 21 23 23 24 24 26 28 29 30 31 31 30 28 27 27 27 27 27 27 28 29 29
13 10 6 2 3 6 8 9 11 13 15 16 16 16 17 18 18 19 19 20 21 22 24 24 25 25 27 28 29 31 31 30 29 29 28 27 26 26 26 27 28 28
12 10 8 6 5 4 5 6 9 10 12 12 13 14 15 17 18 19 19 20 21 22 23 24 25 25 26 27 29 30 31 31 30 30 30 28 27 27 27 27 27 28
12 10 8 6 5 4 3 4 6 8 9 10 11 13 14 15 17 19 20 21 21 21 23 24 25 26 26 27 29 30 30 31 31 30 30 29 29 29 28 28 28 28
12 10 9 7 5 4 3 3 3 5 7 8 10 11 13 14 16 17 18 18 18 19 20 22 24 25 26 28 29 29 30 30 30 30 30 30 29 29 28 28 28 29
12 11 10 8 7 6 4 2 1 2 3 5 7 8 9 11 11 12 13 14 15 16 17 19 20 22 24 25 27 28 29 29 29 29 29 28 27 27 27 28 29 29
14 13 12 11 9 8 6 4 3 1 1 2 4 5 6 7 8 10 11 12 12 13 14 14 16 18 20 21 24 26 27 27 26 26 25 25 25 26 27 28 29 29
16 15 14 13 12 11 9 8 7 5 4 3 3 3 4 5 6 7 8 9 10 10 11 12 13 14 15 17 19 21 23 24 23 23 24 24 25 27 28 29 29 29
17 17 16 15 14 13 12 11 10 9 7 6 5 5 4 4 4 4 5 6 7 7 9 10 11 12 13 14 16 17 18 20 21 22 24 25 27 28 29 30 30 30
17 17 16 15 14 13 12 10 9 8 7 6 5 4 4 4 4 4 5 6 6 7 8 9 11 12 12 13 14 15 16 17 19 21 23 25 26 27 28 29 29 30
Wind_Direction
281 283 283 278 273 270 269 268 266 263 260 257 255 254 253 252 252 251 251 250 250 250 248 246 243 241 241 240 239 238 235 233 233 232 231 232 232 232 234 235 236 236
280 281 279 275 269 266 266 265 264 262 258 255 253 251 251 251 252 253 253 252 252 251 250 247 244 241 240 240 239 239 238 236 234 233 233 232 232 232 232 233 235 236
278 278 275 271 266 264 265 265 264 261 257 256 254 252 250 250 251 253 254 254 254 253 251 248 246 244 242 241 240 239 238 238 236 235 234 234 233 233 232 232 233 235
278 276 273 268 264 263 265 266 264 260 258 256 254 251 249 250 251 253 255 256 256 254 251 249 247 245 243 242 241 240 238 238 237 236 235 235 234 234 233 233 232 233
280 277 272 267 264 262 262 265 265 262 259 256 250 247 247 248 250 252 254 255 256 254 252 250 248 246 244 243 241 240 238 238 238 238 237 235 235 235 235 234 233 233
282 280 275 269 264 261 261 262 263 261 258 252 247 244 244 246 248 250 251 252 254 254 253 251 249 247 245 244 243 240 239 238 238 239 238 237 237 236 235 235 235 234
283 281 279 274 267 261 259 258 259 258 254 248 244 242 242 244 246 248 249 251 253 254 253 251 250 249 248 247 246 244 242 241 240 240 239 240 239 238 237 237 236 235
285 282 278 276 271 264 258 255 255 255 252 246 242 241 240 242 244 247 250 252 253 253 253 252 251 250 250 249 248 247 246 244 243 241 241 241 242 242 241 239 238 237
288 285 280 275 271 266 260 255 253 252 250 245 241 239 239 240 243 247 251 253 254 254 254 254 252 251 250 250 249 248 247 246 244 242 241 242 243 244 244 242 241 239
289 286 282 276 270 265 260 254 250 249 247 242 237 235 236 239 242 246 249 251 253 255 255 254 253 251 249 249 249 248 248 247 244 241 240 241 242 243 243 243 241 240
290 286 283 278 269 261 257 252 247 246 244 240 235 233 234 237 240 243 246 247 249 251 252 253 253 251 249 248 247 247 246 244 242 239 238 238 239 240 240 240 240 239
290 285 281 277 268 258 252 247 242 240 240 237 233 231 231 232 235 239 241 244 248 249 250 252 253 251 248 247 245 244 242 240 237 236 234 234 235 237 238 239 239 238
292 285 278 274 268 258 249 242 237 235 235 233 230 228 227 229 232 236 240 244 248 250 250 251 252 251 249 246 245 242 240 238 235 233 233 234 235 236 237 238 239 239
297 286 275 270 267 257 245 236 231 230 229 229 229 228 228 231 234 238 243 246 248 250 251 250 251 251 249 247 246 243 240 237 234 233 234 235 235 235 235 236 239 240
305 292 277 271 268 256 241 230 225 224 224 224 227 229 229 232 235 240 243 247 249 250 250 250 249 249 248 247 247 246 243 239 235 234 234 235 236 235 234 235 236 238
318 304 288 278 269 249 229 220 218 219 219 221 226 227 227 229 233 238 243 247 250 250 249 249 249 247 247 246 246 246 245 243 240 237 236 236 236 236 235 235 235 237
345 334 314 289 253 219 209 210 212 214 216 221 225 226 227 229 232 237 243 247 250 250 249 248 248 248 247 247 246 245 245 244 243 241 239 237 237 237 236 236 236 237
17 19 22 53 146 176 192 202 208 211 215 220 224 226 228 231 234 240 245 249 252 252 249 247 247 248 247 247 246 246 245 244 243 242 240 238 237 237 236 235 235 236
34 42 52 72 104 142 177 198 207 214 219 223 227 230 234 237 242 247 252 255 255 253 249 247 247 248 248 247 245 244 244 244 242 241 241 239 237 236 234 234 235 235
37 46 56 70 86 117 155 188 208 219 227 233 238 242 245 250 254 257 260 261 259 254 250 248 247 247 248 247 246 245 244 243 242 241 241 241 239 236 235 234 234 234
41 47 56 68 80 100 129 169 208 230 243 249 255 258 259 261 262 262 262 260 257 253 250 249 249 249 248 247 246 244 243 243 242 242 242 242 241 240 238 236 235 235
44 48 54 59 64 69 74 78 119 247 259 260 260 261 260 259 257 256 254 252 250 249 247 246 246 246 246 246 245 243 241 241 242 243 244 245 245 245 243 240 239 238
48 51 54 57 59 63 64 66 70 79 244 258 262 262 260 258 255 252 250 249 249 247 245 244 242 241 241 242 242 242 240 238 239 241 244 246 245 245 244 242 242 242
48 49 51 53 54 54 54 54 50 44 34 9 338 318 302 291 280 271 265 260 257 253 248 245 241 239 238 239 240 241 240 237 236 237 239 242 243 244 245 246 246 246
51 51 51 52 53 54 54 54 53 51 48 41 30 19 3 347 329 312 299 287 278 270 263 256 250 244 240 238 238 238 238 237 235 235 236 238 240 242 245 246 247 247
54 53 52 50 50 51 51 51 51 51 49 44 37 24 6 348 330 313 302 293 284 276 271 265 258 252 246 241 237 235 235 235 234 234 235 235 236 238 240 242 244 245